map of MAA home
Great Circle Mapper logo
MAA - Airport
Location
City:  Chennai/Madras, India
Name:Meenambakkam
ICAO / IATA:VOMM / MAA

Details
Type:Airport (Aerodrome, Airfield)
Use:Public/Civil, International (customs port of entry)
Latitude:12°59'40"N (12.994414)
Longitude:80°10'50"E (80.180517)
Datum:WGS 1984
Elevation:52 ft (16 m)
Runways:2
Longest:12001 × 148 ft (3658 × 45 m), paved

Time
Time Zone:UTC+5:30
Local Time:

Weather
METAR:VOMM 030240Z 21008KT 6000 FEW020 BKN100 29/25 Q1008 NOSIG
TAF:VOMM 030300Z 0306/0412 25010G20KT 6000 FEW020 SCT100
BECMG 0311/0313 18010KT
TEMPO 0312/0318 SCT020 FEW025CB BKN100
BECMG 0321/0323 25010KT
BECMG 0403/0405 25010G20KT

Related Locations
Nearby:
Farthest:SEII: 11410 mi / 18362 km
Puerto Villamil [General Villamil], Isabela Island, Galápagos Islands, EC

Find:

   beyond  
but within

Other Information
Maps:
NOTAMs:
Links:
Sources:

  
flag of India   

Sectional Chart

Flight Planning
at skyvector.com

Satellite Image

Google Maps Satellite View

 

Copyright © 2004-2014 Karl L. Swartz. All rights reserved.
The Great Circle Mapper name and logo are trademarks of the Great Circle Mapper.
All other trademarks mentioned herein belong to their respective owners.
Please see credits for attibutions and further copyright information.

  Follow gcmap on Facebook Follow gcmap on Twitter

hCard Microformat

Geo Microformat